GFSFLT2_925_temp_060.txt.gz
Temp
16 16 17 18 18 18 18 19 18 18 19 19 19 19 19 19 19 19 19 19 19 19 19 18 18 18 18 18 17 17 17 17
17 17 18 17 18 18 18 19 19 19 19 19 19 19 19 19 19 18 18 18 18 18 18 18 18 18 18 18 17 17 17 17
18 17 17 17 18 18 19 19 19 19 18 18 18 19 18 18 18 18 18 18 18 17 18 17 17 18 18 17 17 16 16 16
17 16 17 17 18 18 19 19 18 18 18 18 18 17 17 18 17 17 17 17 17 17 17 17 17 17 17 16 16 16 16 16
17 18 17 17 18 19 19 18 18 18 18 17 17 17 17 17 16 17 17 17 16 16 16 16 16 16 16 16 15 15 15 15
18 18 18 18 19 19 19 18 18 17 17 17 17 17 16 17 17 17 17 16 16 16 16 16 16 15 15 15 15 15 14 14
18 18 18 18 19 18 18 17 17 17 17 17 17 17 17 17 16 16 16 16 16 15 15 15 15 14 14 14 14 13 13 13
18 18 18 18 18 18 18 17 17 17 17 18 17 17 17 16 15 15 15 15 15 15 15 14 14 14 13 13 12 12 12 12
19 18 18 18 18 17 17 17 17 17 17 17 17 16 16 15 15 15 15 15 14 14 14 14 13 13 12 12 12 12 12 11
18 18 18 18 17 17 17 17 17 17 17 17 16 16 15 16 15 15 14 14 14 14 13 12 12 11 11 11 11 11 10 10
18 18 18 17 17 17 17 16 16 16 16 16 16 16 15 15 15 14 14 14 13 12 12 11 10 10 10 10 10 10 9 9
18 18 18 17 17 16 16 15 15 15 16 15 15 14 14 14 14 13 13 13 12 11 11 10 10 10 9 9 9 9 9 8
18 18 17 17 16 15 15 15 15 15 15 14 14 14 14 14 13 13 12 12 12 11 10 10 10 9 9 9 9 9 8 8
17 17 17 17 17 17 16 15 14 15 14 14 14 14 14 14 13 13 12 12 11 11 10 10 10 9 9 7 5 7 8 7
16 17 17 17 17 16 16 15 14 14 14 14 14 14 13 13 13 12 12 11 11 11 10 10 9 9 8 8 4 4 4 7
15 16 17 17 16 16 15 15 14 14 14 14 14 13 13 13 13 12 12 11 11 10 10 9 9 8 8 8 8 7 3 2
16 16 16 16 16 15 15 15 15 15 14 14 13 13 13 12 12 11 11 10 10 9 9 9 8 8 8 7 7 6 5 3
16 16 15 16 16 16 16 16 15 14 14 13 13 12 13 11 11 11 10 10 9 9 8 8 8 7 7 7 6 5 4 4
16 15 16 16 16 16 16 15 15 14 14 13 13 11 11 10 9 9 9 9 8 8 8 7 7 7 7 6 5 5 5 4
16 16 16 16 16 15 14 14 14 14 13 12 11 11 10 10 8 9 9 8 8 7 7 7 6 6 6 5 5 5 4 4

GFSFLT2_925_temp_063.txt.gz
Temp
15 16 16 17 18 19 20 19 18 19 19 18 18 18 18 18 18 18 18 18 18 18 18 18 18 17 17 17 17 17 17 16
15 16 16 17 18 19 19 19 19 18 18 18 18 18 18 18 18 18 17 17 17 17 17 18 18 17 17 17 17 16 16 16
15 16 17 17 18 18 18 18 17 18 18 18 17 17 17 17 17 17 17 17 17 17 17 17 17 17 16 16 16 15 15 15
15 15 17 17 18 18 18 18 18 18 18 17 17 17 17 17 17 17 17 17 17 17 16 16 16 16 16 16 15 15 15 14
15 16 17 17 18 17 18 17 17 17 17 17 17 16 17 17 17 17 17 17 16 16 16 16 16 15 15 15 15 14 14 14
15 17 17 17 17 17 17 17 17 17 17 17 17 17 16 17 17 17 17 16 16 16 16 15 15 14 14 14 14 13 13 13
16 17 17 17 17 17 17 17 17 17 17 17 17 17 17 17 16 16 16 15 15 15 15 14 14 13 13 13 12 12 12 12
17 17 17 17 17 17 17 17 17 17 17 17 17 17 16 16 16 15 15 15 15 14 14 14 13 13 13 12 12 11 11 11
17 17 17 17 17 17 17 17 17 17 17 17 16 16 16 15 15 15 14 14 14 14 13 13 13 13 12 12 11 10 10 10
18 17 17 17 17 17 17 17 16 16 17 16 16 15 15 15 15 14 14 14 13 13 13 13 12 11 11 10 10 9 9 9
17 17 17 17 17 17 16 16 16 16 16 15 15 15 15 15 15 14 14 14 14 13 12 11 11 10 10 9 9 9 9 8
18 17 17 17 16 16 15 15 16 16 16 15 15 15 14 14 14 14 14 13 13 12 11 10 10 9 9 9 9 8 8 8
17 17 16 16 15 15 15 15 15 15 15 15 15 14 14 14 14 13 13 13 12 11 10 10 9 9 9 8 9 8 8 7
16 16 16 16 16 15 15 15 15 15 14 14 14 14 14 14 14 13 12 12 11 11 10 10 9 9 8 6 4 6 7 8
17 16 16 16 16 15 15 14 14 13 13 14 14 14 14 14 13 13 12 11 11 10 10 9 9 8 8 8 4 3 4 7
17 16 16 16 15 14 15 15 13 13 14 14 13 13 14 13 12 12 11 10 10 9 9 9 8 8 8 8 7 7 3 2
16 15 15 15 15 15 15 15 15 14 14 13 13 12 12 12 11 10 10 10 9 9 9 8 8 7 7 7 6 6 5 2
15 14 15 15 15 15 15 15 14 14 13 13 12 11 11 11 10 10 10 9 9 8 8 7 7 7 6 6 5 5 4 3
14 15 15 15 15 15 15 15 15 14 13 12 11 11 10 10 10 10 8 9 8 8 8 7 6 6 6 6 5 5 4 4
14 14 15 15 15 15 15 15 14 14 13 12 11 11 10 11 10 9 9 8 8 7 7 6 6 6 5 5 4 4 4 4

GFSFLT2_925_temp_066.txt.gz
Temp
17 17 17 17 18 19 17 18 20 18 17 17 17 17 17 17 17 18 18 18 18 16 17 17 17 17 17 17 16 16 16 16
16 16 16 17 17 17 17 19 18 17 17 17 17 17 17 17 17 17 17 17 17 17 16 17 16 16 16 16 16 15 15 15
15 15 15 16 16 16 18 19 18 17 17 17 17 17 17 17 17 17 17 17 17 17 16 16 16 16 15 15 15 15 15 15
14 14 15 15 16 16 17 17 17 17 17 17 17 17 17 17 17 16 17 17 16 16 16 16 16 15 15 15 14 14 14 14
13 14 14 16 17 17 17 17 16 17 17 16 16 17 17 17 17 16 16 16 16 16 16 16 15 15 14 14 14 13 13 13
14 16 15 16 17 17 17 17 17 17 17 16 17 17 17 17 17 16 16 16 15 16 15 15 15 14 14 13 13 13 13 13
15 16 17 16 17 17 16 16 17 17 17 17 17 17 17 16 16 16 15 15 15 15 14 14 14 13 13 13 12 12 12 12
15 15 16 16 17 17 16 16 16 17 17 17 16 17 16 16 15 15 15 15 14 14 14 13 13 13 12 11 11 11 11 11
15 16 16 16 17 17 16 16 17 17 16 16 16 16 16 15 15 15 14 14 14 14 13 13 12 12 11 11 10 10 10 10
16 16 16 16 16 16 16 16 16 16 16 16 16 15 15 15 15 14 14 14 14 13 12 12 11 11 11 10 9 9 9 9
16 16 16 16 16 16 16 16 15 15 15 15 15 15 15 15 15 14 14 13 13 13 12 11 11 10 10 9 9 9 8 8
17 16 17 16 16 15 15 15 14 15 15 15 15 15 14 14 14 14 13 13 13 12 12 11 10 10 9 9 8 8 8 8
16 16 16 16 15 15 14 14 14 14 14 15 15 14 14 14 14 14 13 13 12 12 11 10 9 9 8 8 8 8 7 7
16 16 16 16 16 15 15 15 14 15 14 14 14 14 14 14 14 13 13 12 11 11 10 10 9 8 8 6 4 6 7 7
17 17 16 16 15 15 14 13 14 13 13 14 14 14 14 13 13 12 12 11 11 10 10 9 9 8 8 8 4 4 4 7
17 16 16 15 15 14 14 13 13 13 14 14 13 13 13 12 12 11 11 11 10 9 9 9 8 8 7 7 7 6 3 2
16 16 15 14 14 14 14 13 14 14 13 13 13 12 12 11 12 11 11 10 9 9 8 8 8 7 7 6 6 6 5 2
15 15 14 14 14 13 13 14 13 13 13 12 12 11 11 12 11 11 10 9 9 9 8 8 7 6 6 6 5 4 4 3
14 14 13 14 14 13 13 14 14 14 13 12 12 11 11 10 10 9 9 8 9 9 8 7 6 6 6 5 5 5 4 3
14 14 13 14 14 14 13 13 14 14 14 13 12 11 10 10 9 8 8 8 8 8 7 6 6 5 5 5 5 4 4 4

GFSFLT2_925_temp_069.txt.gz
Temp
17 18 18 18 19 18 18 18 17 18 19 18 17 17 17 17 17 17 17 17 17 17 17 17 17 17 17 16 16 16 15 15
16 16 16 17 17 17 16 17 17 19 18 17 17 17 17 17 17 16 16 17 17 17 17 17 17 16 16 16 16 15 14 14
15 15 15 14 16 17 17 17 18 18 17 17 17 17 17 17 17 16 16 16 16 16 16 16 16 16 15 16 16 15 14 14
14 14 13 14 14 17 17 18 18 17 17 17 17 17 17 16 16 16 16 16 16 16 16 15 16 15 15 15 15 14 14 14
13 14 15 16 16 16 16 16 17 17 17 17 17 17 16 16 16 16 16 16 15 15 15 15 15 14 14 14 14 13 13 13
13 14 14 15 15 16 16 16 16 16 17 17 17 17 16 16 16 16 15 15 15 15 15 14 14 14 13 13 13 13 12 12
13 13 15 15 16 16 16 16 17 17 16 17 17 17 16 16 15 15 15 15 15 15 14 14 13 13 13 12 12 12 12 11
14 15 15 15 16 16 17 17 16 16 16 16 16 17 16 15 15 15 15 15 14 14 14 14 13 13 12 12 11 11 10 10
13 13 14 15 15 16 16 17 16 16 16 16 16 15 15 15 15 15 14 14 14 14 13 13 12 12 11 11 10 10 10 10
14 15 16 15 16 16 17 16 16 15 15 15 15 15 15 15 15 14 14 14 14 13 13 12 11 10 10 10 9 9 9 9
14 15 16 15 16 16 16 16 15 15 15 15 15 15 15 15 14 14 14 13 13 13 12 12 11 10 10 9 9 8 8 8
15 16 15 16 15 15 15 15 14 14 15 14 15 15 15 14 14 14 13 13 13 12 12 11 10 10 9 9 8 8 8 7
16 16 16 16 15 14 13 14 13 14 14 14 15 15 14 14 14 14 13 13 12 12 12 11 9 9 9 9 8 7 7 7
16 16 16 15 15 15 14 14 13 14 13 14 14 14 14 14 14 13 13 12 12 12 11 9 8 9 9 8 11 10 7 7
16 15 16 15 15 15 14 13 13 12 13 13 13 14 14 13 13 13 12 12 12 11 10 9 9 8 8 9 10 10 9 7
15 15 15 15 15 15 15 13 12 12 13 13 13 13 13 13 12 12 12 11 11 10 9 9 9 9 7 7 6 7 9 9
15 15 15 15 15 14 14 13 13 13 13 13 13 12 12 12 12 12 11 11 10 9 9 8 8 8 7 7 6 6 6 6
14 14 14 14 14 14 13 14 13 13 12 12 12 11 12 12 12 11 10 10 9 9 8 8 7 7 6 6 6 6 7 6
14 13 13 13 14 14 12 13 13 13 13 12 11 11 11 11 10 10 9 9 8 8 8 8 7 6 5 5 5 5 5 5
14 14 14 13 13 12 12 14 14 13 13 13 13 12 10 10 10 10 10 9 8 8 8 7 7 6 5 5 4 4 4 4

GFSFLT2_925_temp_072.txt.gz
Temp
17 18 18 17 17 16 17 18 17 18 18 17 17 17 17 18 18 17 18 18 18 17 17 17 17 17 16 17 17 17 18 18
16 16 16 16 16 16 16 17 16 17 18 18 17 17 17 17 17 17 17 17 17 17 17 17 16 16 16 16 16 16 17 18
16 15 14 14 16 16 16 16 17 17 17 18 17 16 16 17 16 17 17 17 17 17 16 16 16 16 16 15 16 17 17 17
15 14 14 14 15 16 15 16 16 16 16 16 17 17 17 16 15 16 16 16 17 16 16 16 16 16 15 16 16 15 16 16
13 13 14 13 14 13 14 15 15 16 16 17 16 16 16 16 15 15 15 15 15 15 16 16 15 15 15 14 15 15 15 15
13 13 12 14 14 15 15 15 15 15 16 16 16 17 16 16 16 16 14 15 15 15 14 13 13 13 13 13 13 14 14 15
12 13 14 14 15 15 15 16 16 16 15 16 17 17 16 16 15 14 15 14 15 15 14 14 13 13 13 13 13 13 13 14
12 13 13 14 14 15 15 15 16 15 16 16 16 16 15 14 14 15 15 15 15 15 15 14 14 14 13 12 12 13 12 12
12 12 14 14 15 15 15 16 16 17 16 15 16 16 14 13 15 15 15 14 13 14 14 14 14 14 13 12 13 12 12 12
14 15 15 16 15 15 16 16 16 15 15 15 14 14 14 15 15 15 14 14 14 14 14 14 14 14 13 13 13 12 12 11
16 16 16 16 15 16 16 16 15 15 14 15 14 14 14 15 15 14 13 14 14 14 14 14 14 14 14 13 12 12 11 11
17 16 16 15 15 15 15 15 15 14 14 14 13 14 14 14 14 14 14 14 13 13 13 13 13 13 13 13 12 11 11 11
17 17 16 16 15 16 16 15 14 14 13 13 13 14 14 14 14 13 14 14 13 13 13 12 13 12 12 14 13 11 10 10
17 17 16 16 17 17 17 16 14 14 15 12 12 13 13 14 14 13 13 13 12 12 12 13 12 11 12 13 15 14 11 10
18 18 18 17 17 17 16 16 14 14 14 12 12 14 13 14 13 13 13 13 13 12 12 12 13 11 10 12 14 15 13 12
19 19 18 17 17 17 16 17 16 15 14 12 12 13 13 13 13 13 13 13 12 12 11 11 11 12 11 10 10 10 12 12
19 19 18 17 16 16 16 17 16 13 12 12 12 12 13 13 12 12 12 12 11 10 10 10 11 11 11 11 10 10 10 10
17 17 17 16 15 15 16 16 14 12 12 11 12 13 13 12 12 12 11 10 10 9 9 8 9 9 10 9 9 10 10 10
17 17 18 17 15 15 14 14 14 13 12 12 14 13 13 12 12 11 10 10 10 9 7 8 9 9 9 9 8 8 8 8
18 18 18 17 16 14 14 14 14 14 13 13 14 14 13 12 11 11 10 10 9 7 7 8 8 8 8 7 8 8 7 7

GFSFLT2_925_temp_078.txt.gz
Temp
18 18 18 17 17 17 17 17 17 17 18 18 18 18 18 18 19 18 17 18 17 17 18 18 18 18 18 18 19 19 20 18
16 17 17 16 16 16 16 16 17 17 18 18 18 18 18 18 18 18 18 18 17 17 18 17 17 17 17 18 18 19 18 17
16 16 16 16 16 16 16 16 17 17 17 17 17 17 17 18 18 18 18 17 17 17 17 17 17 17 17 18 18 18 18 17
15 15 16 16 16 16 16 16 16 16 17 17 16 17 17 17 17 18 18 17 17 17 17 17 17 17 17 17 17 18 17 16
15 15 15 15 15 15 15 15 15 16 17 17 17 17 17 17 16 17 17 17 17 17 17 16 16 17 17 17 17 17 16 16
14 13 13 14 14 14 14 14 15 16 17 17 17 17 17 16 16 16 16 16 17 17 16 16 16 16 15 15 15 16 16 15
12 12 11 12 12 13 14 16 16 16 17 17 17 17 17 17 16 16 17 17 17 16 16 15 15 15 15 15 15 15 15 14
12 12 11 12 13 15 15 15 16 16 16 17 17 17 17 17 17 17 17 17 16 16 16 16 16 15 15 14 15 15 14 14
11 11 11 12 12 14 15 16 16 16 17 17 16 17 17 17 17 17 17 16 17 17 16 16 16 16 15 15 15 14 14 14
11 11 12 12 13 13 14 13 16 16 16 16 15 16 16 16 16 16 17 17 17 16 16 16 16 16 16 16 15 15 14 13
12 13 13 13 12 13 13 15 15 15 16 17 16 16 16 16 16 17 17 16 16 16 16 16 16 16 16 15 15 14 14 14
12 12 12 12 13 14 14 15 16 16 17 17 16 16 15 16 17 17 16 16 16 16 16 16 16 16 16 16 15 14 14 14
13 13 13 13 13 14 16 16 16 17 17 16 16 15 16 16 17 16 16 16 16 16 15 15 15 14 14 15 15 14 14 13
14 14 14 14 14 16 17 17 17 17 16 16 17 16 16 16 16 15 15 16 15 15 14 15 15 14 14 14 11 13 13 13
16 15 15 16 16 17 18 18 17 16 16 16 16 16 16 16 16 16 16 16 15 14 14 15 15 14 13 13 11 11 12 14
18 19 17 17 17 19 19 19 17 16 16 15 15 14 15 15 16 16 15 15 14 14 14 14 14 13 12 12 12 12 9 9
19 19 19 18 18 19 20 19 18 17 16 16 15 14 14 15 15 15 15 15 15 14 14 13 13 13 12 12 13 12 12 10
19 20 19 19 18 19 19 19 18 17 16 15 14 13 13 13 15 15 15 14 14 14 13 12 12 11 11 11 11 11 11 11
20 20 20 20 18 19 19 19 19 18 16 14 14 12 12 14 14 15 14 14 13 13 12 12 11 10 10 10 11 11 11 10
20 20 20 21 19 18 19 18 19 18 16 14 14 13 13 14 14 14 14 13 12 11 11 10 9 9 10 10 9 9 9 10

GFSFLT2_925_temp_084.txt.gz
Temp
18 19 17 16 17 17 18 18 18 18 18 18 17 17 17 17 18 19 19 19 19 19 19 18 18 17 17 17 16 16 15 14
20 17 17 15 16 17 17 18 18 18 18 18 17 17 17 17 18 18 19 19 19 19 18 18 18 17 17 16 16 15 15 15
16 15 14 15 16 16 16 17 18 17 17 17 17 17 17 17 18 18 19 19 18 18 18 18 18 17 16 16 16 16 16 15
15 16 16 16 15 15 15 16 16 16 16 16 16 16 17 17 17 18 18 18 18 18 17 17 17 17 17 16 16 16 15 15
15 17 15 15 15 15 14 16 16 16 16 17 17 17 17 17 17 17 17 18 18 17 17 16 16 17 17 16 16 16 15 15
15 15 16 15 15 15 15 15 16 16 17 17 17 18 17 17 17 17 17 17 17 17 16 16 16 16 16 16 15 15 15 15
14 14 14 14 13 14 15 15 16 16 17 17 18 18 17 17 17 17 17 17 17 16 16 16 16 16 16 15 15 15 14 14
14 14 14 14 14 14 15 15 16 16 17 17 18 18 17 17 17 17 17 17 16 16 16 16 16 16 15 15 15 14 14 14
12 13 14 14 14 15 16 15 16 17 17 17 18 18 17 17 17 17 17 16 16 16 16 16 16 16 15 15 14 14 14 13
12 12 13 14 14 15 16 16 16 16 16 16 17 17 17 17 17 17 16 16 16 16 16 16 16 15 15 15 14 14 14 13
11 11 12 12 13 14 15 15 15 16 16 17 16 16 16 16 16 17 17 16 16 16 16 16 15 15 15 15 14 14 14 14
11 11 12 12 13 13 14 14 15 15 16 17 16 17 16 16 16 16 16 16 16 16 16 16 16 15 15 15 14 14 14 14
11 12 12 12 12 12 12 13 14 16 16 18 16 16 16 16 16 16 16 16 16 16 16 16 15 15 14 14 14 14 14 13
11 11 11 11 12 12 13 14 15 16 17 16 15 16 16 16 16 16 16 16 16 16 16 15 15 14 14 12 10 12 12 13
11 11 12 13 13 13 14 15 15 15 15 15 16 17 17 16 16 16 15 16 16 16 16 15 15 14 14 14 8 9 10 12
11 11 12 13 13 13 13 14 14 14 16 17 17 18 17 16 16 16 15 15 16 16 16 15 15 14 13 14 13 13 8 9
11 12 12 12 13 13 13 13 14 16 16 17 17 16 16 16 16 15 15 15 16 15 15 15 15 14 13 12 12 11 11 9
11 12 12 12 12 13 13 13 14 14 15 15 15 16 16 16 16 15 15 15 15 15 15 15 14 14 14 13 12 11 10 9
12 13 13 13 13 13 13 13 14 15 15 15 14 15 15 16 15 15 15 15 15 15 15 14 13 13 12 11 11 11 11 10
13 13 14 14 13 13 14 14 14 15 15 15 16 16 16 16 16 15 15 15 15 14 14 13 11 10 9 9 8 8 10 10

GFSFLT2_925_temp_087.txt.gz
Temp
17 17 17 17 18 17 17 16 18 19 17 17 17 17 18 18 18 18 18 18 17 17 17 17 17 17 16 16 16 16 15 14
17 18 17 16 16 16 16 16 17 18 17 17 17 17 17 18 19 19 18 18 17 17 17 18 17 17 16 17 16 15 14 14
16 16 16 17 16 15 15 15 16 17 17 17 17 16 17 18 19 19 18 18 17 17 17 17 17 16 17 16 16 15 15 13
14 15 14 14 15 15 15 14 15 15 17 17 16 16 17 18 18 18 18 18 17 17 17 17 17 16 16 16 16 15 14 13
15 15 14 14 14 14 14 14 14 15 16 16 16 16 16 17 17 18 17 18 17 17 17 17 17 17 16 16 16 15 15 14
14 15 16 14 14 14 14 13 14 15 15 16 15 15 16 17 18 18 18 17 17 17 17 17 17 16 16 16 15 15 15 14
14 14 15 15 14 13 13 14 14 15 15 15 16 17 17 17 17 17 17 17 17 17 17 16 16 16 16 16 15 14 14 14
14 13 14 13 14 13 14 14 15 15 16 16 16 17 17 17 17 17 17 17 16 17 16 16 16 16 15 15 15 14 14 14
14 13 13 13 12 13 13 14 15 15 16 17 17 17 17 18 17 16 17 16 16 16 16 16 16 15 15 15 15 14 14 14
12 13 13 13 13 14 14 15 15 16 16 17 17 17 17 18 17 17 16 16 16 16 16 15 15 15 15 15 14 14 14 13
11 12 12 13 14 14 15 16 16 16 17 16 17 17 17 17 17 16 16 16 16 16 16 16 15 15 15 15 14 14 14 13
11 11 12 13 14 14 15 16 16 16 16 16 16 17 16 16 16 16 16 16 16 16 16 15 15 15 15 14 14 14 13 13
11 11 12 13 13 13 14 14 15 15 16 16 16 17 16 16 16 16 16 16 16 16 15 15 15 15 14 13 13 13 13 13
11 11 11 12 12 13 13 14 13 14 16 16 18 17 16 16 16 16 16 16 16 15 15 15 15 14 14 12 9 11 12 12
11 11 12 12 12 13 13 12 13 14 16 15 15 16 16 16 16 16 16 15 16 16 15 16 15 14 14 14 8 9 9 11
11 11 12 12 12 12 12 13 13 14 14 15 15 16 16 16 16 15 15 15 15 15 16 15 15 15 13 14 13 13 8 9
11 11 11 11 11 12 12 13 14 14 15 15 15 16 16 16 15 15 15 15 15 15 15 15 15 15 14 13 11 11 11 8
11 11 11 12 12 12 13 13 14 14 15 15 15 16 15 16 16 16 16 16 15 15 15 15 15 15 15 14 12 11 9 9
11 11 11 12 12 12 13 13 13 14 14 15 15 16 16 17 17 16 16 15 15 15 14 14 14 14 14 12 12 11 10 9
11 11 11 11 11 11 12 12 13 13 14 15 15 16 17 17 17 16 16 15 15 14 14 14 13 12 12 11 10 10 10 9

GFSFLT2_925_temp_093.txt.gz
Temp
18 15 16 18 18 19 19 19 19 17 17 17 17 17 17 17 17 16 16 16 17 17 16 16 16 16 15 15 15 13 14 14
15 15 17 16 17 18 19 19 18 18 18 17 17 17 17 16 17 16 17 17 17 17 16 16 16 15 15 14 14 13 14 14
14 15 15 16 17 18 19 19 18 17 17 16 16 16 16 17 16 17 17 17 17 17 16 16 15 15 14 14 13 14 13 14
14 15 15 16 17 17 17 17 17 17 17 16 16 15 16 16 16 16 17 17 16 16 16 16 15 14 14 14 13 13 13 14
15 14 15 15 16 15 16 15 16 17 17 16 16 15 15 15 15 16 16 16 14 15 15 14 14 14 13 13 13 13 13 13
14 15 15 14 15 15 14 15 15 16 17 16 15 14 14 15 15 16 16 15 14 14 15 16 16 16 15 15 13 13 13 13
14 14 14 14 14 14 14 14 16 15 16 15 16 14 14 15 16 16 16 17 17 16 16 15 16 15 15 14 14 13 12 13
14 14 14 14 14 14 14 14 14 15 15 15 15 14 14 15 16 17 17 17 16 16 16 16 15 15 15 15 14 14 12 12
13 13 13 14 14 14 14 13 13 14 14 15 15 14 15 15 16 16 17 17 16 16 16 15 15 15 15 14 14 14 13 12
13 13 13 14 13 13 13 13 13 14 14 14 14 15 16 16 15 16 16 16 16 16 16 14 15 14 14 14 13 14 13 13
13 13 13 13 13 13 13 13 13 14 14 15 16 17 17 17 16 15 16 15 16 16 15 15 14 13 14 14 13 13 13 13
13 13 12 13 13 13 13 13 13 13 14 16 17 17 17 16 15 15 15 14 15 16 15 15 14 14 13 12 13 13 13 13
12 12 12 12 12 12 12 13 13 14 15 17 16 17 17 16 16 16 15 14 15 16 15 14 13 13 12 11 12 12 12 13
12 12 12 12 12 12 12 12 13 14 15 16 17 17 17 16 16 16 15 15 15 15 15 13 13 13 13 13 14 13 12 12
11 11 11 12 12 12 12 13 13 13 14 15 16 17 17 17 15 16 16 16 15 15 15 14 13 13 14 14 13 15 13 10
11 11 11 11 12 13 13 13 13 13 14 15 16 16 16 16 16 16 17 16 15 15 15 14 13 13 12 14 13 13 15 15
11 11 11 11 12 13 13 13 13 14 14 15 16 16 16 16 15 15 15 16 16 15 14 14 14 13 13 11 10 10 11 14
11 11 11 11 11 12 13 13 13 14 14 15 16 16 16 15 15 16 16 16 15 14 14 14 14 13 12 13 13 13 11 10
11 11 11 11 12 12 13 13 13 13 14 14 14 14 14 14 14 14 15 15 15 15 14 14 13 12 12 12 13 12 12 11
12 12 12 11 11 11 12 12 12 13 13 14 14 14 14 14 14 15 15 15 15 15 15 15 14 14 13 12 11 10 12 13

GFSFLT2_925_temp_096.txt.gz
Temp
16 17 15 14 17 18 20 18 18 18 18 18 18 18 17 17 17 17 16 16 16 16 16 16 16 16 15 15 15 17 18 17
15 17 17 15 16 18 19 20 19 17 17 17 18 18 18 17 17 17 17 17 16 16 16 15 15 15 15 15 15 16 18 17
15 16 16 16 16 18 18 17 19 17 17 16 17 16 17 16 17 17 17 17 16 16 16 15 15 15 15 15 16 17 17 17
15 14 14 15 16 16 16 18 17 16 16 16 17 17 17 18 16 17 17 16 16 16 16 15 15 15 14 15 17 17 17 17
15 15 15 15 15 16 16 16 16 16 16 17 17 17 17 16 16 16 15 15 15 15 14 16 17 16 15 17 16 17 17 16
15 15 15 15 15 16 16 16 16 16 16 17 17 17 17 16 17 17 17 17 16 16 16 17 16 17 16 16 16 17 17 16
15 15 15 15 15 15 15 15 16 16 16 16 16 17 17 17 18 18 18 18 17 17 17 16 16 16 16 16 16 16 16 16
15 15 14 14 14 15 15 14 16 16 15 15 16 15 16 17 17 18 18 18 18 17 17 16 16 16 15 15 16 16 16 16
14 14 14 13 13 14 14 14 15 15 15 15 15 15 15 16 17 18 17 17 17 17 16 16 16 16 16 15 15 15 15 15
13 13 13 13 13 13 13 14 14 14 15 14 15 15 15 16 17 17 17 17 16 16 16 16 16 16 16 16 16 15 15 15
13 13 13 13 13 13 14 14 14 14 14 14 15 15 16 17 17 17 16 16 16 16 16 16 16 16 16 16 16 15 14 15
13 13 13 13 13 13 13 14 14 14 14 14 14 14 14 16 16 15 16 16 15 16 16 16 16 17 17 16 15 15 14 14
12 12 12 13 13 13 13 13 13 13 13 14 14 13 14 15 15 15 16 16 16 15 15 15 16 15 16 15 14 13 12 13
12 12 12 12 13 13 13 13 13 13 13 13 13 13 14 14 15 15 16 16 15 14 15 15 14 13 15 16 16 15 14 13
13 12 12 12 13 13 13 12 12 12 13 13 13 14 14 14 15 15 15 16 15 14 14 14 15 12 14 16 18 18 18 15
13 13 12 12 12 12 13 12 12 13 12 13 13 14 14 15 15 15 15 15 15 14 14 14 15 15 13 14 14 15 18 17
13 13 11 12 12 12 12 12 13 13 14 14 14 15 15 15 16 16 14 14 14 14 14 14 15 16 15 14 14 14 15 15
13 13 12 11 13 13 13 14 13 12 13 13 14 14 15 16 16 16 16 14 15 14 14 14 14 14 15 14 14 15 15 15
14 13 12 12 13 13 13 13 14 13 13 14 15 14 14 16 16 15 15 16 15 15 14 14 14 13 13 13 12 13 14 13
14 14 13 12 12 12 14 15 13 14 15 15 14 15 15 15 15 16 16 16 15 15 15 15 14 14 13 13 13 13 12 12

GFSFLT2_925_temp_099.txt.gz
Temp
18 16 19 20 20 16 16 18 18 19 18 18 18 17 17 17 17 16 16 16 17 17 17 16 16 16 16 17 18 19 20 18
17 16 17 15 15 14 15 18 19 18 18 18 17 17 17 17 16 16 17 17 17 17 17 17 16 16 16 17 18 19 19 18
17 16 15 16 14 14 15 17 19 18 18 17 17 16 17 16 17 16 17 17 17 17 16 16 16 16 16 17 18 20 19 18
17 16 15 14 15 16 15 16 16 17 17 17 17 17 17 18 16 16 16 17 17 17 16 16 15 15 16 17 18 19 19 18
16 16 15 15 15 15 16 16 16 16 17 17 17 17 17 17 16 15 15 16 15 15 15 15 17 17 17 18 18 19 19 17
17 17 16 16 16 17 16 16 16 16 16 17 18 17 17 17 16 16 16 16 15 16 16 18 18 18 18 18 18 19 19 16
16 16 17 16 16 16 16 16 16 16 16 17 17 17 17 17 17 17 17 17 16 17 17 18 18 18 18 17 18 18 18 17
17 16 16 16 16 16 16 15 16 16 16 16 17 16 17 17 18 18 18 18 18 18 19 18 18 18 17 17 18 18 18 17
17 17 16 16 16 16 15 16 15 15 16 16 16 17 17 18 18 19 19 19 19 19 19 18 18 18 17 17 17 17 18 17
16 14 15 15 15 15 15 15 15 16 15 15 16 17 17 17 18 19 20 19 19 19 18 18 18 18 18 18 18 17 17 17
14 14 15 14 14 13 14 14 15 15 15 14 15 15 16 17 18 18 18 19 18 19 18 18 18 18 18 18 17 17 17 17
14 14 13 13 13 13 14 13 14 14 15 14 14 15 15 16 17 16 18 18 18 18 18 18 18 19 19 18 17 17 17 17
13 13 13 13 13 13 14 14 14 14 15 14 14 14 14 16 16 16 17 17 17 17 17 17 18 18 19 18 17 16 16 16
13 13 13 13 13 13 13 13 14 14 14 14 14 13 14 15 16 16 16 17 17 17 17 17 18 17 18 18 17 16 15 14
14 13 13 12 13 13 13 13 13 13 14 13 13 12 13 13 14 15 16 17 16 16 16 17 17 15 16 18 18 18 18 16
16 14 13 13 13 14 13 14 13 13 13 13 13 12 12 13 14 15 16 16 16 15 15 16 17 16 14 16 16 16 18 17
15 14 13 13 13 13 13 12 12 13 13 13 13 12 13 13 15 15 15 16 16 16 15 15 16 16 15 15 15 15 15 16
15 14 13 12 12 13 13 13 12 13 12 12 12 12 13 13 15 15 15 15 15 15 15 14 15 16 16 16 16 16 15 15
15 15 13 13 13 13 13 12 13 13 13 13 13 13 12 13 14 15 15 15 15 15 15 16 15 15 15 15 15 15 15 15
16 15 15 13 13 14 14 14 14 13 14 14 14 14 14 13 14 15 15 15 15 15 16 16 16 15 14 15 15 15 14 13

GFSFLT2_925_temp_102.txt.gz
Temp
19 18 18 19 18 18 19 18 16 18 19 18 18 18 17 17 17 16 16 15 17 18 18 17 17 18 18 19 19 19 18 16
19 17 17 17 17 17 16 17 18 14 18 18 19 17 17 17 16 16 16 18 18 18 18 17 17 18 18 19 19 19 18 16
18 17 16 16 16 16 15 16 15 14 17 18 16 16 17 16 16 16 17 17 18 17 17 17 17 18 19 19 19 19 17 16
18 17 16 15 15 15 14 13 16 14 17 17 16 16 16 16 16 16 17 17 17 17 17 17 17 18 18 18 19 19 17 15
18 17 15 15 15 14 15 15 15 13 16 17 16 16 16 16 15 16 16 16 16 16 16 16 17 17 18 18 19 18 16 15
18 17 16 16 15 16 15 15 15 16 16 16 16 17 16 16 15 15 15 15 16 16 16 16 17 17 17 18 19 18 16 15
17 17 17 16 16 16 15 15 15 16 15 16 17 17 16 15 15 15 15 15 15 16 17 17 17 17 17 18 18 18 16 15
18 17 17 16 16 17 17 16 16 16 16 16 17 17 16 15 16 15 16 16 16 17 17 18 18 18 18 18 18 18 16 15
18 17 17 16 16 17 17 16 15 15 16 16 17 17 16 16 16 16 16 16 17 17 17 18 18 18 17 18 18 18 17 15
17 16 16 16 16 16 16 16 15 15 15 17 17 17 16 17 17 17 17 17 17 18 18 18 18 18 17 17 17 18 17 16
16 15 15 16 15 15 16 16 16 15 15 15 16 15 16 17 17 18 18 18 18 18 18 18 18 18 18 17 17 17 17 17
15 14 15 15 14 14 15 15 15 15 14 15 15 15 15 17 18 18 18 18 19 18 18 18 18 18 18 18 17 17 17 17
14 14 14 14 14 14 14 14 14 15 15 14 15 15 16 16 18 18 18 18 18 18 18 18 18 18 18 17 17 17 17 17
14 14 14 13 14 13 13 14 14 14 15 14 14 14 15 16 17 18 18 18 17 18 18 18 18 18 18 17 14 16 16 16
14 14 14 14 14 13 13 13 14 14 14 14 14 14 14 15 16 17 17 17 17 17 17 17 18 17 17 17 14 14 15 15
16 14 14 13 13 13 14 13 14 14 14 14 13 13 13 14 15 16 17 15 16 17 17 17 17 16 16 17 16 16 14 13
16 14 14 13 13 13 13 13 13 13 13 13 13 13 13 14 14 14 15 15 16 16 15 16 16 16 15 16 16 15 15 14
16 15 14 13 13 13 13 13 13 13 13 12 12 12 11 12 13 14 14 14 14 14 15 16 16 16 16 16 15 15 14 14
15 14 13 13 13 13 13 13 13 13 12 12 12 12 12 12 12 13 13 13 13 15 15 15 15 15 16 16 15 15 16 15
15 14 14 13 13 13 13 13 13 12 12 12 12 12 12 12 12 12 13 14 15 15 14 15 15 15 15 15 16 15 15 15

GFSFLT2_925_temp_108.txt.gz
Temp
22 21 20 19 19 18 19 19 20 18 18 17 17 18 17 19 19 17 17 16 16 17 17 17 16 17 17 16 16 16 16 15
21 20 20 19 19 18 18 18 19 18 17 17 16 18 17 18 19 18 17 17 17 17 17 17 17 17 17 17 16 16 15 14
21 20 19 19 19 18 18 18 17 18 17 17 17 17 16 17 17 17 17 17 17 17 17 17 17 17 17 17 17 16 15 14
20 19 19 19 18 17 17 17 17 16 16 16 15 16 16 16 16 17 17 17 16 17 17 17 17 16 16 16 17 16 15 14
19 19 18 18 18 17 16 16 16 16 16 16 15 16 16 15 15 16 16 16 16 16 17 17 17 16 16 17 16 16 15 14
18 18 18 17 16 16 16 16 15 15 14 15 15 15 15 15 15 15 16 16 16 17 17 18 18 16 17 17 16 15 14 14
18 17 18 18 16 16 15 15 15 14 14 14 14 15 15 15 14 14 16 16 16 17 17 18 18 16 16 17 16 15 15 14
18 17 17 17 16 15 16 16 14 13 13 13 14 15 15 15 14 15 15 16 16 16 18 18 18 17 16 16 16 16 15 14
18 18 17 17 16 16 15 15 14 13 13 14 13 15 15 14 14 14 15 15 16 18 17 17 17 17 16 16 16 15 15 15
18 18 17 17 16 15 15 15 14 14 13 14 14 15 15 14 13 14 15 15 17 17 17 17 17 17 16 16 16 16 15 15
18 17 17 17 16 16 15 15 15 14 14 15 15 14 15 14 14 14 15 16 17 17 17 17 17 17 16 16 16 16 15 15
18 17 16 16 16 16 15 14 15 15 14 15 15 15 14 14 14 14 15 15 15 16 16 16 17 17 17 16 16 15 15 15
17 16 16 16 15 15 15 14 14 14 15 14 14 15 14 14 14 15 15 15 16 16 15 16 16 17 17 15 14 15 15 15
16 15 15 15 15 15 15 15 14 14 14 14 15 15 14 14 14 15 15 15 16 16 16 15 16 17 16 15 12 14 13 14
15 15 15 15 15 15 14 14 14 14 14 14 14 14 14 14 15 15 15 15 15 15 16 16 16 16 17 16 11 12 13 14
15 15 15 15 14 14 14 14 14 14 14 14 14 14 14 14 15 15 15 15 15 15 16 16 16 15 16 17 17 16 12 12
14 14 15 14 14 14 14 14 14 14 14 14 14 14 14 14 14 15 14 15 15 15 16 17 17 15 16 15 15 15 14 12
14 14 14 14 14 14 14 13 13 13 13 13 13 14 13 14 14 14 14 14 15 16 16 16 15 15 16 16 15 15 13 13
13 14 13 14 14 13 13 13 13 13 13 14 14 13 13 13 13 14 14 14 15 15 14 13 13 13 15 15 15 16 17 15
14 13 13 13 14 13 13 13 13 13 13 13 13 13 13 12 12 12 13 14 13 13 12 12 13 14 14 14 14 15 15 16

GFSFLT2_925_temp_111.txt.gz
Temp
22 21 21 20 20 19 19 19 19 19 18 18 19 18 18 18 17 17 17 17 16 16 16 16 15 16 16 16 16 15 15 15
22 21 20 19 19 18 18 18 18 19 18 18 18 17 18 19 16 16 17 17 16 15 16 16 16 16 16 16 15 15 15 14
21 21 20 19 19 18 18 18 18 18 18 18 18 17 17 17 16 17 17 16 16 16 16 16 16 16 16 16 16 15 15 14
20 20 20 19 18 18 18 18 18 17 17 17 17 16 17 16 18 17 16 16 16 16 16 16 16 16 15 15 16 15 14 14
19 19 19 19 18 18 18 17 17 17 16 16 16 17 16 17 17 16 16 16 15 16 16 16 17 16 15 16 16 15 14 13
20 19 18 18 18 17 17 16 16 15 15 15 15 15 15 16 18 17 16 16 15 15 16 16 16 16 16 16 16 15 14 13
19 19 18 18 17 17 15 15 15 15 15 15 14 14 14 15 14 15 16 16 15 15 15 15 15 16 16 16 16 15 14 14
20 18 18 17 17 15 15 15 16 15 15 15 15 14 14 15 15 14 15 16 16 16 15 15 16 16 16 16 16 15 15 14
19 18 17 17 16 16 15 15 14 14 14 14 15 14 14 15 14 14 15 16 16 16 16 15 16 16 16 15 15 15 15 14
18 18 17 17 16 16 16 16 15 15 14 13 14 14 14 14 14 14 15 16 15 15 16 15 15 16 16 15 15 15 14 14
18 17 17 16 16 16 15 16 15 14 14 13 13 14 14 14 14 13 15 15 16 16 16 16 16 16 16 15 15 15 15 14
18 17 17 16 16 15 15 15 15 14 14 13 13 14 14 15 14 14 15 15 15 15 15 16 16 16 15 15 14 15 14 14
17 16 16 16 15 15 14 14 14 14 14 14 13 14 14 14 13 14 14 15 15 15 15 16 15 15 14 12 12 13 14 14
16 16 16 16 16 15 15 15 14 14 14 14 14 14 14 14 14 13 14 14 15 14 14 15 16 15 14 13 10 12 12 13
15 16 15 15 16 15 14 15 14 14 14 14 14 14 14 13 14 14 14 14 14 15 15 15 15 14 16 15 11 12 12 12
15 15 15 15 15 15 15 14 14 14 14 14 14 14 14 14 14 14 14 14 14 14 15 15 15 14 15 16 17 15 12 12
14 15 15 15 14 14 15 15 15 14 14 14 14 14 14 14 14 13 13 14 14 14 14 15 16 14 15 15 15 15 14 12
14 14 14 15 15 14 14 14 14 14 14 14 14 14 14 14 14 14 14 14 14 14 14 15 15 15 15 16 16 15 13 13
13 13 14 14 14 14 14 15 15 15 14 13 13 14 14 14 14 14 13 14 14 14 14 15 15 15 15 15 15 16 16 15
13 13 13 13 14 14 14 14 14 14 14 14 13 13 14 13 13 13 13 13 14 14 14 14 14 14 13 13 14 14 13 13

GFSFLT2_925_temp_117.txt.gz
Temp
21 20 20 20 20 19 19 19 20 20 19 20 20 19 19 20 18 19 18 17 17 17 17 16 16 16 16 16 16 16 16 16
22 21 19 18 17 18 19 18 19 19 19 19 19 19 19 19 18 19 18 19 17 17 16 16 15 16 16 16 16 16 16 16
21 21 19 18 18 17 18 18 18 19 18 19 19 18 18 18 18 18 19 19 17 17 16 16 15 16 16 16 15 15 15 15
20 20 19 18 18 18 17 18 18 18 17 18 18 18 16 17 18 17 18 18 17 17 16 15 15 15 15 15 15 14 15 15
20 19 19 18 18 18 17 18 17 17 17 17 17 17 17 16 16 16 16 17 16 16 15 15 15 15 14 14 14 14 14 14
20 19 19 18 18 18 17 17 17 17 17 16 16 16 16 15 15 15 15 15 15 15 15 14 14 14 14 14 14 14 14 14
21 20 19 18 18 17 17 16 18 17 17 16 16 15 15 16 15 15 15 15 15 15 14 14 14 14 14 14 13 13 14 14
20 20 19 19 18 18 17 17 16 17 16 16 16 15 15 15 15 15 15 15 14 14 15 15 14 14 14 13 13 14 13 13
20 20 19 19 18 18 17 17 16 16 16 16 15 15 15 16 15 15 14 15 14 14 14 15 14 14 14 13 14 13 13 13
20 18 16 18 18 18 17 17 16 15 16 14 15 15 14 14 14 14 14 14 14 14 14 14 14 14 14 14 13 13 13 13
19 17 16 17 17 17 17 17 16 14 14 14 14 14 14 14 14 14 14 14 14 13 14 14 14 14 14 13 13 13 12 13
18 16 15 16 16 16 15 14 14 14 14 14 14 14 14 14 14 14 14 13 13 13 14 14 14 14 14 13 13 13 12 13
16 15 15 15 14 14 14 13 13 13 13 13 13 14 14 14 14 14 13 13 13 13 13 13 13 14 13 12 12 12 12 12
15 15 14 15 15 14 14 14 14 14 14 14 14 14 14 14 14 13 13 13 12 13 14 14 14 13 15 15 14 13 12 12
15 15 14 15 15 14 14 14 14 14 14 14 14 14 13 13 14 13 12 12 12 13 13 14 14 13 14 17 15 16 14 12
15 14 14 14 14 15 14 14 14 14 14 14 14 13 13 13 13 13 12 12 12 13 13 14 13 13 13 14 16 15 17 14
15 14 14 14 14 14 15 14 14 14 14 14 13 13 12 13 13 13 12 12 13 13 13 14 14 14 14 14 14 14 15 16
14 14 13 14 14 14 14 14 14 14 14 14 14 13 13 13 13 13 13 12 13 13 13 13 14 14 15 15 15 16 16 16
13 13 13 13 14 14 14 14 14 14 14 14 14 13 13 13 13 13 13 13 13 13 13 13 14 14 14 14 15 16 16 15
13 13 13 13 13 13 13 14 14 14 14 14 14 14 14 13 13 13 13 13 13 13 13 13 13 14 14 14 16 16 17 16

GFSFLT2_925_temp_120.txt.gz
Temp
21 23 19 18 19 19 20 21 21 21 20 20 20 19 20 20 20 18 19 18 18 18 17 17 16 16 17 17 17 18 20 20
21 20 19 18 18 18 19 19 20 21 20 20 20 20 20 19 19 19 19 18 19 18 17 17 16 16 16 16 16 17 20 19
21 19 18 18 18 18 18 18 19 20 19 19 19 18 18 18 18 19 19 19 18 18 17 17 16 16 16 16 16 19 19 19
21 20 19 18 18 18 18 18 18 18 18 18 19 20 19 19 18 19 19 18 17 16 17 17 16 16 15 16 18 19 19 19
22 20 19 18 18 18 18 18 18 19 19 19 19 19 18 18 18 17 18 17 17 17 17 16 17 18 17 17 18 17 18 18
22 20 18 18 18 18 18 18 18 19 19 19 18 18 18 18 18 17 17 16 16 15 15 17 18 18 18 17 17 18 18 18
23 21 18 18 18 18 18 18 18 18 17 18 17 17 18 17 17 17 16 16 16 16 16 17 17 17 17 17 17 17 17 18
23 22 20 18 17 17 17 17 18 17 17 17 17 16 16 15 17 16 17 16 17 16 17 18 17 17 16 17 17 17 16 17
24 23 21 20 18 17 17 17 17 17 17 17 17 16 16 15 15 15 16 16 15 16 16 17 17 17 17 17 16 16 16 16
25 24 22 20 20 19 17 16 16 16 17 16 16 16 16 15 15 15 15 15 15 15 16 17 17 17 17 17 17 16 16 16
25 24 22 20 20 20 19 18 16 16 17 17 16 16 15 15 15 14 14 14 14 15 15 17 17 17 17 17 17 16 16 16
22 22 22 20 19 19 17 16 15 15 15 16 16 15 15 15 15 14 14 14 13 13 15 17 17 18 18 17 17 17 16 16
22 21 20 19 18 18 16 15 14 15 14 14 14 15 15 14 14 14 14 13 13 14 15 17 18 17 17 16 16 16 16 16
21 20 20 19 17 16 16 15 15 14 14 14 14 14 14 14 14 14 14 13 13 14 15 17 18 17 17 17 16 15 15 15
21 21 19 18 19 16 17 15 15 14 14 14 14 15 15 14 14 14 13 13 13 13 15 16 17 17 18 18 18 18 17 16
20 20 19 16 17 16 17 17 17 16 15 14 14 15 14 14 14 14 13 13 13 13 14 16 17 17 18 19 19 20 19 17
18 19 16 15 16 18 18 19 19 17 15 15 15 14 14 14 13 13 13 13 13 13 14 16 16 17 18 18 19 18 19 20
16 16 16 15 15 17 18 19 18 16 15 16 15 13 13 13 13 12 12 12 12 12 13 15 16 17 17 17 18 18 19 20
17 14 15 14 14 16 17 18 17 17 16 16 15 14 12 12 12 12 11 11 12 12 13 15 15 16 16 17 18 18 19 19
19 18 15 14 13 14 15 16 16 15 16 16 15 14 13 13 12 12 11 11 12 12 13 15 15 16 16 17 17 18 19 19

GFSFLT2_925_temp_123.txt.gz
Temp
23 20 21 22 21 21 21 21 19 19 19 20 19 20 20 20 21 20 19 19 20 18 18 18 17 18 17 18 19 20 20 22
23 21 19 19 19 20 20 21 21 18 19 19 19 19 19 20 20 19 19 18 18 18 18 18 17 17 17 17 18 20 21 22
23 22 21 20 20 19 19 20 20 19 18 19 19 18 18 18 18 18 18 18 18 18 18 17 17 17 17 17 18 20 21 22
24 23 21 21 20 20 19 19 18 18 19 18 18 19 19 20 19 18 18 18 18 18 18 19 17 16 16 17 18 21 21 21
25 23 21 21 20 19 20 20 20 20 20 20 19 20 20 20 19 18 17 18 16 18 18 17 17 17 17 17 19 20 21 20
26 24 22 21 21 19 19 21 21 20 20 20 20 19 19 19 18 18 18 17 16 16 17 17 17 19 19 19 19 20 20 19
27 25 23 21 21 19 19 21 20 21 21 20 20 20 19 19 19 19 19 18 17 16 16 17 19 20 19 18 19 20 20 19
27 25 24 21 21 19 19 20 22 20 21 21 20 19 19 19 19 18 19 17 16 16 16 17 19 19 18 18 19 19 19 18
27 26 24 23 20 18 18 19 21 21 21 20 20 19 19 19 18 17 17 17 16 16 16 17 18 18 17 17 19 19 18 18
28 28 26 24 23 19 18 18 19 20 20 19 19 18 18 17 17 17 16 16 16 15 16 16 18 19 17 18 19 18 18 18
27 27 26 25 23 22 19 17 17 18 20 19 17 18 18 17 16 16 16 15 16 15 15 16 19 19 17 18 19 19 18 18
25 25 25 25 23 22 22 19 17 17 17 20 18 17 17 17 16 15 16 15 14 15 15 15 19 19 17 18 19 18 18 18
25 24 24 23 23 22 22 20 17 16 16 19 18 17 16 16 16 15 15 15 14 14 14 15 18 19 17 17 17 17 17 18
24 24 24 23 23 22 22 19 16 16 16 17 18 17 16 15 16 15 15 14 14 14 13 14 17 18 17 17 16 16 17 17
23 24 24 23 23 22 18 16 15 15 15 16 17 16 16 15 15 15 14 14 14 13 13 14 17 18 17 18 17 17 16 16
22 23 23 22 21 20 17 16 17 15 15 15 16 16 16 16 16 15 14 14 14 13 13 14 16 17 17 18 19 19 18 16
20 21 22 21 19 20 17 17 18 18 18 16 15 16 16 17 15 15 14 14 13 13 13 13 16 16 17 18 19 20 19 19
21 19 19 17 16 17 17 17 19 20 19 17 17 16 16 16 15 14 14 14 13 13 13 13 15 16 18 19 20 20 19 20
21 22 19 17 16 16 16 17 19 20 18 17 17 14 14 14 14 13 13 13 13 13 13 13 14 16 17 18 20 20 20 21
19 21 21 17 16 15 16 17 18 19 19 18 18 15 14 13 13 13 13 13 13 13 13 13 13 15 16 18 19 19 20 20